Location: Colle San Luigi
(43.5500°N, 13.4167°E)
Time: 10:23:12
(UTC+00:00)

STARLINK-1203 - Pass Details

Date: 09 April 2020
Orbit: 558 x 561 km, 53.0° (Epoch: 04 June)

Event Time Altitude Azimuth Distance (km) Brightness Sun altitude
Rises 19:16:33 0° 306° (NW) 2,749 8.9 -16.7°
Reaches altitude 10° 19:18:53 10° 313° (NW) 1,851 7.5 -17.0°
Maximum altitude 19:22:55 43° 26° (NNE) 791 4.4 -17.7°
Enters shadow 19:24:27 30° 75° (ENE) 1,017 4.6 -17.9°
